Weather in Gurney Airport

Papua New Guinea     10°18′36″S   150°19′48″E
temp.,
°C
wind,
m/s
gust,
m/s
humid.,
%
clouds,
%
prec.,
mm/h
press.,
hPa
HPBL,
m
8 august, mon
mon801:00+21ssw219896 0.1 101149
04:00+21sw119799 0.2 101149
07:00+22s138991 0.0 1013141
10:00+26se236674 0.1 10131205
13:00+29ese2451100 0.0 10101475
16:00+27se236425 0.1 10091129
19:00+21ssw229615 0.1 101168
22:00+21sw229712 0.1 101348
9 august, tue
tue901:00+21ssw229623 0.1 101260
04:00+20ssw229660 0.4 101159
07:00+20ssw22945 0.1 101363
10:00+26sse24597 0.1 10131262
13:00+28se335139 0.0 10101394
16:00+26sse3362100 0.0 10101032
19:00+21ssw22897 0.0 101268
22:00+20sw2292100 0.0 101357
10 august, wed
wed1001:00+20sw229468 0.0 101253
04:00+21ssw2295100 0.1 101174
07:00+22ssw2395100 0.2 1013101
10:00+24s2483100 0.7 1013618
13:00+23s2489100 1.0 1012450
16:00+22ssw2395100 1.7 1011206
19:00+21ssw2396100 0.2 1013136
22:00+21ssw2396100 0.3 1014137
11 august, thu
thu1101:00+21ssw239696 0.1 1012135
04:00+21sw2296100 0.3 101274
07:00+22ssw239569 0.4 101399
10:00+25sse247888 0.9 1013795
13:00+25sse258999 2.4 1011756
16:00+23s2494100 5.3 1010320
19:00+22ssw2399100 3.1 1011122
22:00+22sse23100100 54.4 1010250
12 august, fri
fri1201:00+22sse23100100 60.5 1009235
04:00+21w12100100 150.1 1008210
07:00+21ssw2298100 36.1 1013120
10:00+23ssw1293100 36.6 1013208
13:00+24sse2394100 3.1 1012353
16:00+23sse2495100 5.1 1011377
19:00+22s1497100 1.4 1013163
22:00+22sw119892 1.6 101375